Weather reports worldwide

Advertisment
St.Peter-Ording, Germany (10028): temperature & dewpoint: 10.08.2018 13:00:00 - 16.08.2018 13:00:00 (CEST)St.Peter-Ording, Germany (10028): temperature 5cm & temperature -5cm: 10.08.2018 13:00:00 - 16.08.2018 13:00:00 (CEST)St.Peter-Ording, Germany (10028): temperature -20cm & temperature -100cm: 10.08.2018 13:00:00 - 16.08.2018 13:00:00 (CEST)St.Peter-Ording, Germany (10028): wind speed & gusts: 10.08.2018 13:00:00 - 16.08.2018 13:00:00 (CEST)St.Peter-Ording, Germany (10028): wind direction: 10.08.2018 13:00:00 - 16.08.2018 13:00:00 (CEST)St.Peter-Ording, Germany (10028): reduced air pressure: 10.08.2018 13:00:00 - 16.08.2018 13:00:00 (CEST)St.Peter-Ording, Germany (10028): visibility: 10.08.2018 13:00:00 - 16.08.2018 13:00:00 (CEST)St.Peter-Ording, Germany (10028): sunshine duration: 10.08.2018 13:00:00 - 16.08.2018 13:00:00 (CEST)St.Peter-Ording, Germany (10028): precipitation: 10.08.2018 13:00:00 - 16.08.2018 13:00:00 (CEST)
Date & Time tt [°C] td [°C] tt 5cm [°C] tt -5cm [°C] tt -20cm [°C] tt -100cm [°C] ff [km/h] ff [kn] fx [km/h] fx [kn] dd ppp [hPa] vv [km] sd [min] rr [mm]
16.08.2018 13:00:00 21,1 15,0 24,6 26,9 20,4 18,0 29 16 45 25 SSW 1014,5 8 60 0,0
16.08.2018 12:00:00 20,8 15,6 23,4 24,4 19,9 18,0 32 17 47 26 SSW 1014,3 9 60 0,0
16.08.2018 11:00:00 19,7 15,0 20,9 22,4 19,5 18,0 33 18 49 26 SSW 1014,4 16 47 0,0
16.08.2018 10:00:00 20,4 15,6 22,4 21,9 19,2 18,0 29 16 42 23 S 1014,6 14 58 0,0
16.08.2018 09:00:00 20,0 15,5 21,3 19,8 19,0 18,0 22 12 39 21 SSW 1014,8 10 14 0,0
16.08.2018 08:00:00 19,5 16,5 19,7 18,8 19,1 18,0 26 14 37 20 SSW 1015,2 7 0 0,0
16.08.2018 07:00:00 19,2 16,6 18,9 18,2 19,1 18,0 19 11 30 16 S 1015,3 6 0 0,0
16.08.2018 06:00:00 19,3 15,9 19,0 18,0 19,3 18,0 19 10 32 18 S 1015,3 9 0 0,0
16.08.2018 05:00:00 19,3 15,4 19,0 17,9 19,4 18,0 21 11 31 17 SSW 1015,7 12 0 0,0
16.08.2018 04:00:00 19,1 15,5 18,7 17,6 19,7 18,0 21 12 31 17 SSW 1016,0 13 0 0,0
16.08.2018 03:00:00 19,2 17,0 18,5 18,1 19,9 18,0 19 10 26 14 SSW 1016,3 7 0 0,0
16.08.2018 02:00:00 19,0 17,1 17,8 18,6 20,2 18,0 10 6 16 8 SSW 1016,6 11 0 0,0
16.08.2018 01:00:00 19,2 16,8 18,4 18,8 20,4 18,0 11 6 15 8 SW 1016,8 10 0 0,0
16.08.2018 00:00:00 19,4 16,7 19,1 19,3 20,6 18,0 9 5 11 6 S 1016,9 19 0 0,0
15.08.2018 23:00:00 19,8 16,9 19,5 19,9 20,9 18,0 9 5 14 8 S 1016,9 21 0 0,0
15.08.2018 22:00:00 19,9 17,1 19,7 20,3 21,2 18,0 9 5 13 7 SSW 1017,1 18 0 0,0
15.08.2018 21:00:00 20,0 16,8 19,9 20,9 21,4 18,0 9 5 14 8 S 1017,1 24 0 0,0
15.08.2018 20:00:00 20,4 16,3 20,4 21,8 21,6 18,0 10 5 14 8 S 1016,9 31 3 0,0
15.08.2018 19:00:00 20,9 15,6 21,9 23,6 21,6 18,0 12 6 21 12 SW 1016,9 28 47 0,0
15.08.2018 18:00:00 21,7 15,8 23,8 25,5 21,4 18,0 14 8 22 12 W 1017,0 18 60 0,0
15.08.2018 17:00:00 21,9 16,4 24,8 26,2 20,9 18,0 19 10 27 15 W 1017,1 16 50 0,0
15.08.2018 16:00:00 22,2 18,1 25,3 26,1 20,4 18,0 20 11 28 15 WSW 1017,2 15 7 0,0
15.08.2018 15:00:00 21,5 17,5 24,5 25,8 19,8 18,0 22 12 33 18 WSW 1017,1 18 23 0,0
15.08.2018 14:00:00 21,5 17,9 24,0 23,6 19,5 18,0 27 15 36 19 WSW 1016,9 10 5 0,0
15.08.2018 13:00:00 20,0 16,9 21,6 21,2 19,3 18,0 24 13 39 21 WSW 1016,6 13 0 0,0
15.08.2018 12:00:00 20,3 17,3 21,7 22,6 18,8 18,0 28 15 36 19 SW 1016,5 12 7 0,0
15.08.2018 11:00:00 20,4 15,9 22,5 21,5 18,4 18,0 24 13 32 17 WSW 1016,3 25 4 0,0
15.08.2018 10:00:00 20,1 16,0 21,2 19,6 18,2 18,0 24 13 34 19 WSW 1016,0 26 0 0,0
15.08.2018 09:00:00 19,0 15,6 19,1 18,1 18,1 18,0 26 14 32 18 WSW 1015,5 27 0 0,0
15.08.2018 08:00:00 18,6 14,9 18,6 17,5 18,2 18,0 21 11 31 17 W 1015,0 45 45 0,0
15.08.2018 07:00:00 18,0 14,8 17,3 16,4 18,3 18,0 22 12 35 19 W 1014,9 34 8 0,0
15.08.2018 06:00:00 17,8 14,6 17,0 16,4 18,5 18,0 26 14 39 21 W 1014,7 38 0 0,0
15.08.2018 05:00:00 18,2 14,8 17,7 16,9 18,6 18,0 31 17 39 21 W 1014,7 46 0 0,0
15.08.2018 04:00:00 18,1 14,5 17,7 17,0 18,8 18,0 29 15 36 19 W 1014,7 53 0 0,0
15.08.2018 03:00:00 18,0 14,7 17,5 16,9 19,0 17,9 22 12 31 17 W 1014,7 41 0 0,0
15.08.2018 02:00:00 18,0 13,7 17,5 16,8 19,2 17,9 23 13 35 19 W 1014,8 50 0 0,0
15.08.2018 01:00:00 17,9 13,1 17,3 16,8 19,6 17,9 26 14 40 22 WNW 1014,6 47 0 0,0
15.08.2018 00:00:00 17,7 13,0 17,0 16,9 20,0 17,9 30 16 45 24 WNW 1014,3 47 0 0,0
14.08.2018 23:00:00 17,8 13,8 17,4 17,6 20,4 17,9 34 18 48 26 WNW 1013,9 51 0 0,0
14.08.2018 22:00:00 18,0 14,1 17,3 18,3 20,8 17,9 35 19 49 27 WNW 1013,5 62 0 0,0
14.08.2018 21:00:00 18,2 15,8 17,9 19,1 21,3 17,9 39 21 53 29 NW 1012,6 35 0 0,8
14.08.2018 20:00:00 17,6 16,5 17,5 20,0 21,7 17,9 39 21 53 29 NW 1011,9 1,6 0 0,9
14.08.2018 19:00:00 18,9 17,5 18,8 21,8 21,9 17,9 31 17 41 22 W 1011,3 24 3 0,1
14.08.2018 18:00:00 21,1 17,1 23,5 24,2 22,0 17,9 27 14 41 22 W 1010,9 23 7 0,0
14.08.2018 17:00:00 20,5 16,7 22,1 25,3 21,8 17,9 26 14 35 19 W 1010,7 23 41 0,0
14.08.2018 16:00:00 21,7 17,0 24,7 26,1 21,5 17,9 24 13 35 19 WNW 1010,2 20 43 0,0
14.08.2018 15:00:00 22,0 16,7 25,7 27,5 21,0 18,0 26 14 35 19 WNW 1009,6 13 40 0,0
14.08.2018 14:00:00 21,2 16,0 24,4 27,6 20,4 18,0 24 13 34 19 WNW 1009,1 12 56 0,0
14.08.2018 13:00:00 21,6 16,1 25,2 26,2 19,7 18,0 24 13 32 18 WNW 1008,4 11 49 0,0
14.08.2018 12:00:00 20,8 16,8 22,9 24,8 19,0 18,0 23 12 31 17 W 1007,9 14 51 0,0
14.08.2018 11:00:00 20,7 16,9 23,0 23,1 18,5 18,0 19 11 28 15 W 1007,5 14 35 0,0
14.08.2018 10:00:00 20,0 16,5 21,4 21,5 18,2 18,0 19 10 26 14 W 1007,0 26 21 0,0
14.08.2018 09:00:00 19,0 16,2 19,7 19,2 18,1 18,0 19 10 24 13 W 1006,5 37 4 0,0
14.08.2018 08:00:00 18,6 16,8 17,9 17,7 18,1 18,0 19 11 29 15 W 1005,9 32 0 0,1
14.08.2018 07:00:00 18,4 15,9 18,0 17,3 18,1 18,0 21 12 33 18 W 1005,4 32 0 0,0
14.08.2018 06:00:00 18,5 16,4 18,1 17,4 18,2 18,0 20 11 29 16 W 1005,0 23 0 0,0
14.08.2018 05:00:00 18,2 16,2 17,9 17,3 18,3 18,0 19 10 28 15 W 1004,9 19 0 0,0
14.08.2018 04:00:00 18,0 15,8 17,6 17,2 18,4 18,0 23 12 29 16 W 1004,7 19 0 0,0
14.08.2018 03:00:00 17,8 15,9 17,2 17,3 18,5 18,0 21 11 28 15 W 1004,7 6 0 0,0
14.08.2018 02:00:00 17,4 15,3 16,5 17,2 18,7 18,0 21 12 33 18 W 1004,7 8 0 0,0
14.08.2018 01:00:00 17,7 15,4 17,4 17,7 18,9 18,0 23 12 30 16 WSW 1004,5 12 0 0,0
14.08.2018 00:00:00 18,1 17,0 17,7 18,0 19,1 18,0 22 12 34 18 SSW 1004,3 4,8 0 0,1
13.08.2018 23:00:00 17,5 16,5 17,1 17,9 19,3 18,0 13 7 19 10 S 1004,4 3,3 0 0,0
13.08.2018 22:00:00 16,9 15,8 16,4 18,3 19,6 18,0 6 3 16 9 WSW 1004,1 5 0 2,1
13.08.2018 21:00:00 17,1 15,6 16,7 19,0 19,9 18,0 6 3 44 24 N 1003,7 3,0 0 5,5
13.08.2018 20:00:00 19,2 15,0 17,2 20,5 20,0 18,0 27 14 44 24 SW 1004,2 2,8 0 0,0
13.08.2018 19:00:00 22,2 13,6 22,6 23,0 19,7 18,1 7 4 18 10 E 1003,7 20 27 0,0
13.08.2018 18:00:00 23,2 14,7 26,3 25,2 19,2 18,1 10 5 17 9 E 1004,3 23 47 0,0
13.08.2018 17:00:00 21,3 14,0 22,2 22,1 18,8 18,1 12 6 17 9 ESE 1004,6 23 8 0,0
13.08.2018 16:00:00 19,5 16,5 19,1 19,8 18,7 18,1 8 4 24 13 E 1005,0 15 0 0,2
13.08.2018 15:00:00 19,4 14,3 18,0 20,1 18,6 18,1 17 9 31 17 S 1006,0 13 0 0,0
13.08.2018 14:00:00 20,7 15,0 21,2 20,7 18,4 18,1 12 7 18 10 E 1005,5 29 0 0,1
13.08.2018 13:00:00 20,7 14,9 21,2 20,3 18,2 18,1 11 6 20 11 E 1005,7 28 0 0,0
13.08.2018 12:00:00 20,0 14,8 21,2 19,6 17,9 18,1 10 6 20 11 E 1006,0 24 0 0,0
13.08.2018 11:00:00 19,4 15,1 20,0 19,3 17,7 18,2 12 7 18 10 ESE 1006,3 20 0 0,0
13.08.2018 10:00:00 18,5 15,0 18,9 18,5 17,6 18,2 10 5 19 10 ESE 1006,4 17 0 0,0
13.08.2018 09:00:00 17,5 15,0 18,1 17,8 17,5 18,2 13 7 19 10 E 1006,5 11 0 0,0
13.08.2018 08:00:00 16,7 14,8 16,3 16,9 17,5 18,2 10 6 14 8 E 1006,4 9 0 0,1
13.08.2018 07:00:00 16,6 15,0 16,0 16,5 17,5 18,2 11 6 14 8 ESE 1006,7 6 0 0,1
13.08.2018 06:00:00 17,0 14,4 16,6 16,5 17,6 18,2 10 5 12 7 SE 1007,2 10 0 0,0
13.08.2018 05:00:00 17,2 14,9 16,3 16,6 17,7 18,2 9 5 11 6 ESE 1007,4 8 0 0,0
13.08.2018 04:00:00 18,1 14,9 16,9 16,7 17,8 18,2 9 5 15 8 SE 1007,9 18 0 0,0
13.08.2018 03:00:00 18,4 15,4 17,1 16,8 17,9 18,3 9 5 14 8 SSE 1008,5 25 0 0,0
13.08.2018 02:00:00 18,3 15,8 16,2 16,8 18,0 18,3 8 5 12 6 SSE 1009,0 34 0 0,0
13.08.2018 01:00:00 18,7 16,6 16,6 17,2 18,1 18,3 8 4 13 7 S 1009,4 31 0 0,0
13.08.2018 00:00:00 19,2 15,9 17,5 17,5 18,2 18,3 9 5 17 9 SW 1009,8 29 0 0,0
12.08.2018 23:00:00 19,5 16,4 18,7 17,8 18,3 18,3 9 5 22 12 S 1010,0 32 0 0,0
12.08.2018 22:00:00 19,4 16,5 18,5 18,1 18,4 18,3 9 5 16 9 SSW 1010,4 30 0 0,0
12.08.2018 21:00:00 19,7 16,3 19,1 18,3 18,4 18,4 13 7 22 12 SW 1010,3 35 0 0,0
12.08.2018 20:00:00 19,8 15,7 18,5 18,5 18,5 18,4 18 10 36 19 SSW 1010,6 19 0 0,0
12.08.2018 19:00:00 20,3 14,1 20,2 19,0 18,4 18,4 23 12 38 21 S 1010,8 30 0 0,0
12.08.2018 18:00:00 20,0 13,5 20,6 20,0 18,2 18,4 21 12 34 18 S 1011,3 36 0 0,0
12.08.2018 17:00:00 19,0 12,9 19,5 19,6 18,0 18,5 18 10 31 17 S 1012,3 23 0 0,0
12.08.2018 16:00:00 18,0 13,5 18,3 18,9 18,0 18,5 16 8 31 17 S 1013,2 21 0 0,0
12.08.2018 15:00:00 15,6 13,7 15,6 18,0 17,9 18,5 13 7 35 19 S 1014,2 9 0 0,0
12.08.2018 14:00:00 17,1 10,6 17,7 18,9 17,8 18,5 16 9 34 18 SSW 1014,8 26 0 0,0
12.08.2018 13:00:00 17,3 9,1 17,7 19,2 17,6 18,6 18 10 31 17 SSW 1015,2 33 0 0,0
12.08.2018 12:00:00 17,4 8,8 18,2 19,4 17,3 18,6 22 12 33 18 SW 1015,6 30 4 0,0
12.08.2018 11:00:00 18,0 10,5 20,2 20,5 16,8 18,6 25 13 36 19 SW 1015,7 17 56 0,0
12.08.2018 10:00:00 17,5 10,6 18,8 17,5 16,5 18,6 28 15 37 20 SW 1016,0 27 9 0,0
12.08.2018 09:00:00 17,2 11,9 17,9 16,4 16,3 18,7 26 14 37 20 SW 1016,1 28 14 0,0
12.08.2018 08:00:00 17,0 12,2 16,8 14,7 16,3 18,7 22 12 34 19 WSW 1016,3 64 12 0,0
12.08.2018 07:00:00 16,4 9,3 15,4 14,0 16,4 18,7 24 13 34 18 WSW 1016,5 70 0 0,0
12.08.2018 06:00:00 16,4 9,9 15,7 14,1 16,5 18,7 25 13 34 18 W 1016,5 70 0 0,0
12.08.2018 05:00:00 16,2 10,7 15,1 13,9 16,7 18,7 24 13 36 20 W 1016,9 70 0 0,0
12.08.2018 04:00:00 16,3 10,5 15,4 14,1 16,9 18,8 26 14 36 20 W 1017,4 70 0 0,0
12.08.2018 03:00:00 16,4 11,5 15,4 14,3 17,0 18,8 26 14 40 22 W 1017,5 57 0 0,0
12.08.2018 02:00:00 16,7 11,9 15,9 14,7 17,2 18,8 29 15 48 26 W 1018,0 52 0 0,0
12.08.2018 01:00:00 16,3 11,5 15,2 14,4 17,4 18,8 28 15 38 21 WSW 1018,5 54 0 0,0
12.08.2018 00:00:00 16,9 11,4 16,2 14,7 17,7 18,9 24 13 37 20 WNW 1018,8 56 0 0,0
11.08.2018 23:00:00 16,6 11,2 15,4 14,8 18,0 18,9 29 15 42 23 WNW 1018,9 55 0 0,0
11.08.2018 22:00:00 16,9 10,8 15,9 15,2 18,4 18,9 29 16 43 23 W 1018,9 58 0 0,0
11.08.2018 21:00:00 16,9 10,6 15,8 15,8 18,7 19,0 33 18 51 28 WNW 1018,6 59 22 0,0
11.08.2018 20:00:00 16,7 11,5 15,5 17,7 18,8 19,0 35 19 53 28 WNW 1018,4 14 35 0,5
11.08.2018 19:00:00 18,3 11,2 19,4 19,0 18,8 19,0 39 21 52 28 WNW 1018,3 31 39 0,0
11.08.2018 18:00:00 17,4 11,1 18,0 19,3 18,7 19,0 32 17 60 32 W 1018,1 25 20 0,0
11.08.2018 17:00:00 18,1 10,4 19,5 21,8 18,4 19,1 41 22 58 31 WNW 1017,7 12 55 0,0
11.08.2018 16:00:00 18,6 10,7 20,5 21,4 17,9 19,1 45 25 61 33 WNW 1017,2 10 36 0,0
11.08.2018 15:00:00 17,8 11,9 20,6 20,6 17,6 19,1 52 28 81 44 W 1016,5 8 31 0,2
11.08.2018 14:00:00 17,5 11,9 18,7 19,0 17,4 19,2 40 22 58 32 WNW 1016,0 12 11 0,0
11.08.2018 13:00:00 16,2 13,1 17,0 18,0 17,3 19,2 32 17 57 31 W 1015,8 13 8 2,0
11.08.2018 12:00:00 15,3 11,3 14,4 18,3 17,1 19,2 38 20 52 28 W 1015,2 12 13 0,0
11.08.2018 11:00:00 14,7 11,1 14,3 16,3 17,0 19,2 40 22 58 32 W 1015,1 21 13 0,5
11.08.2018 10:00:00 14,5 11,1 13,6 15,5 17,0 19,3 46 25 66 36 WSW 1014,7 23 11 3,9
11.08.2018 09:00:00 15,2 12,5 14,7 16,4 16,9 19,3 42 23 65 35 SW 1014,5 10 34 0,5
11.08.2018 08:00:00 14,9 11,9 14,0 14,4 17,1 19,3 37 20 63 34 SSW 1014,6 27 0 0,5
11.08.2018 07:00:00 15,0 11,9 14,7 14,5 17,2 19,3 40 21 60 33 SW 1014,7 45 0 0,0
11.08.2018 06:00:00 15,0 12,0 14,4 14,4 17,4 19,4 43 23 58 32 SW 1014,5 46 0 0,0
11.08.2018 05:00:00 15,1 11,3 14,2 14,3 17,6 19,4 37 20 54 29 SSW 1014,8 55 0 0,7
11.08.2018 04:00:00 14,5 11,0 13,1 14,9 17,8 19,4 41 22 55 30 SW 1015,5 7 0 0,3
11.08.2018 03:00:00 16,6 12,1 16,2 15,2 17,9 19,4 36 19 50 27 SW 1015,6 46 0 0,0
11.08.2018 02:00:00 16,9 12,1 15,7 15,3 18,1 19,5 39 21 64 35 SW 1016,1 29 0 0,2
11.08.2018 01:00:00 17,1 12,0 16,3 15,2 18,3 19,5 19 10 37 20 SE 1016,3 42 0 0,0
11.08.2018 00:00:00 16,7 11,1 15,3 14,8 18,5 19,5 16 8 29 15 SSE 1017,1 61 0 0,0
10.08.2018 23:00:00 17,1 11,2 15,7 15,1 18,9 19,5 15 8 25 13 S 1018,0 50 0 0,0
10.08.2018 22:00:00 16,2 10,4 14,8 15,2 19,2 19,5 12 6 27 14 SSW 1018,4 40 0 0,0
10.08.2018 21:00:00 16,8 10,0 15,4 16,3 19,5 19,6 21 11 44 24 SW 1018,7 70 29 0,0
10.08.2018 20:00:00 17,7 11,0 17,5 17,2 19,7 19,6 30 16 42 23 WSW 1018,7 46 2 0,0
10.08.2018 19:00:00 17,6 10,8 17,5 18,0 19,9 19,6 37 20 56 30 SW 1019,0 37 16 0,0
10.08.2018 18:00:00 18,6 11,6 19,2 19,3 20,0 19,6 37 20 51 27 WSW 1019,0 16 10 0,0
10.08.2018 17:00:00 17,4 10,0 17,4 18,6 20,0 19,6 36 19 59 32 SW 1019,2 48 3 0,0
10.08.2018 16:00:00 18,0 11,8 18,9 22,6 19,6 19,7 35 19 51 27 WSW 1019,1 14 48 0,3
10.08.2018 15:00:00 15,1 11,3 14,3 18,0 19,5 19,7 24 13 53 29 SSW 1019,0 9 5 0,5
10.08.2018 14:00:00 16,1 11,8 16,6 19,0 19,5 19,7 27 15 61 33 WSW 1018,7 18 5 0,2
10.08.2018 13:00:00 15,1 12,7 14,9 17,5 19,6 19,7 36 19 58 32 WSW 1018,7 20 2 1,1

tt = temperature
td = dewpoint
tt 5cm = temperature 5cm
tt -5cm = temperature -5cm
tt -20cm = temperature -20cm
tt -100cm = temperature -100cm
ff = wind speed
fx = gusts
dd = wind direction
ppp = reduced air pressure
vv = visibility
sd = sunshine duration
rr = precipitation

Next stations